Location: Devore Heights
(34.2372°N, 117.4156°W)
Time: 20:02:55
(UTC+00:00)

deb Explorer IX - Pass Details

Date: 18 September 2024
Orbit: 502 x 816 km, 38.7° (Epoch: 15 October)

Event Time Altitude Azimuth Distance (km) Brightness Sun altitude
Rises 03:59:35 0° 271° (W) 3,379 ? -26.4°
Maximum altitude 04:07:59 57° 354° (N) 992 ? -28.0°
Enters shadow 04:08:40 54° 22° (NNE) 1,025 ? -28.2°
Drops below altitude 10° 04:13:44 10° 73° (ENE) 2,428 - -29.1°
Sets 04:16:15 0° 77° (ENE) 3,329 - -29.6°
